�N����,����,�~����,�C��,���x,�C��,����,���ϕ���,�ő�u�ԕ���,�ő厞����,���˗�,�I�_���x,�n�����x,�ő啗���N��,DTYPE
"23/11/30","00:10",0.0,6.5,87.8,1013.5,298.8,2.3,3.6,320.6,0.00,4.7,9.5,"00:08:56",1
"23/11/30","00:20",0.0,7.1,86.4,1013.3,308.0,2.5,4.0,330.7,0.00,5.0,9.6,"00:10:48",1
"23/11/30","00:30",0.0,7.4,84.8,1013.0,287.7,1.8,2.8,315.8,0.00,5.1,9.6,"00:24:08",1
"23/11/30","00:40",0.0,7.8,82.5,1012.8,302.9,2.1,3.4,327.9,0.00,5.1,9.6,"00:35:28",1
"23/11/30","00:50",0.0,8.0,80.1,1012.8,276.6,1.7,2.7,264.6,0.00,4.8,9.4,"00:47:20",1
"23/11/30","01:00",0.0,8.1,78.3,1013.0,301.9,1.7,2.8,305.4,0.00,4.6,9.6,"00:52:16",1
"23/11/30","01:10",0.0,7.9,77.7,1012.8,299.4,1.6,2.4,313.1,0.00,4.3,9.3,"01:02:16",1
"23/11/30","01:20",0.0,7.6,78.1,1012.3,288.0,1.2,1.9,267.7,0.00,4.1,9.5,"01:10:08",1
"23/11/30","01:30",0.0,7.5,78.9,1012.6,304.8,1.6,2.6,318.8,0.00,4.1,9.5,"01:29:20",1
"23/11/30","01:40",0.0,7.8,79.7,1012.8,307.3,1.7,4.5,313.8,0.00,4.6,9.4,"01:38:32",1
"23/11/30","01:50",0.0,8.7,77.6,1012.8,319.1,2.5,4.2,342.1,0.00,5.0,9.6,"01:45:36",1
"23/11/30","02:00",0.0,9.0,75.4,1012.8,321.9,2.3,3.2,294.1,0.00,4.9,9.4,"01:55:12",1
"23/11/30","02:10",0.0,9.0,74.3,1012.8,310.7,2.1,3.9,335.2,0.00,4.7,9.5,"02:07:36",1
"23/11/30","02:20",0.0,9.2,73.6,1012.8,308.4,1.6,2.4,322.3,0.00,4.8,9.4,"02:11:04",1
"23/11/30","02:30",0.0,9.0,74.2,1012.8,310.2,1.2,2.0,342.8,0.00,4.7,9.6,"02:20:40",1
"23/11/30","02:40",0.0,9.0,75.2,1012.8,312.8,1.7,2.9,330.3,0.00,4.9,9.6,"02:33:44",1
"23/11/30","02:50",0.0,8.9,75.8,1012.8,313.0,1.6,2.5,311.0,0.00,4.9,9.5,"02:44:08",1
"23/11/30","03:00",0.0,8.9,76.6,1012.8,315.4,1.2,2.2,322.0,0.00,5.1,9.6,"02:59:04",1
"23/11/30","03:10",0.0,8.6,77.6,1012.6,303.4,1.2,1.9,323.7,0.00,5.0,9.5,"03:00:02",1
"23/11/30","03:20",0.0,8.3,79.0,1012.6,304.9,1.7,2.1,313.9,0.00,4.9,9.7,"03:10:40",1
"23/11/30","03:30",0.0,8.1,80.9,1012.6,278.1,1.8,2.5,313.4,0.00,5.1,9.7,"03:22:16",1
"23/11/30","03:40",0.0,7.8,82.0,1012.6,296.4,1.6,1.9,307.2,0.00,5.0,9.7,"03:39:12",1
"23/11/30","03:50",0.0,7.7,83.0,1011.9,292.2,1.6,2.4,315.3,0.00,5.0,9.7,"03:42:24",1
"23/11/30","04:00",0.0,7.6,84.2,1012.1,282.5,1.7,2.2,262.0,0.00,5.1,9.7,"03:51:12",1
"23/11/30","04:10",0.0,7.5,85.0,1011.9,293.0,1.5,2.0,306.0,0.00,5.2,9.8,"04:00:24",1
"23/11/30","04:20",0.0,7.5,86.1,1012.3,298.6,2.0,3.2,317.0,0.00,5.4,9.5,"04:19:36",1
"23/11/30","04:30",0.0,7.6,86.8,1011.9,309.7,2.2,3.2,320.1,0.00,5.6,9.5,"04:20:48",1
"23/11/30","04:40",0.0,7.7,87.3,1012.3,295.3,1.7,2.9,309.1,0.00,5.8,9.7,"04:34:24",1
"23/11/30","04:50",0.0,7.7,87.6,1012.3,284.2,1.8,2.4,313.7,0.00,5.8,9.6,"04:47:42",1
"23/11/30","05:00",0.0,7.7,87.9,1012.3,301.9,2.0,3.3,319.9,0.00,5.9,9.6,"04:59:00",1
"23/11/30","05:10",0.0,7.8,87.8,1012.6,311.4,2.5,3.9,330.0,0.00,5.9,9.5,"05:02:40",1
"23/11/30","05:20",0.0,8.1,87.2,1012.6,310.9,2.6,4.4,312.8,0.00,6.1,9.7,"05:15:20",1
"23/11/30","05:30",0.0,8.4,85.6,1012.6,306.9,2.6,4.8,342.3,0.00,6.2,9.7,"05:23:12",1
"23/11/30","05:40",0.0,8.7,83.8,1012.8,308.7,2.7,4.4,329.4,0.00,6.2,9.7,"05:31:36",1
"23/11/30","05:50",0.0,8.6,82.2,1012.6,304.8,2.5,3.5,310.4,0.00,5.8,9.7,"05:42:32",1
"23/11/30","06:00",0.0,8.5,81.3,1013.0,295.6,2.1,3.1,315.6,0.00,5.5,9.4,"05:59:20",1
"23/11/30","06:10",0.0,8.2,81.1,1012.8,318.6,2.8,4.7,335.0,0.00,5.2,9.7,"06:08:56",1
"23/11/30","06:20",0.0,8.0,81.4,1013.0,326.5,2.8,5.6,332.9,0.00,5.1,9.7,"06:18:56",1
"23/11/30","06:30",0.0,7.8,81.6,1012.8,303.4,2.5,4.1,316.0,0.00,4.9,9.6,"06:20:56",1
"23/11/30","06:40",0.0,7.4,82.3,1012.8,302.4,2.7,3.4,316.1,0.00,4.6,9.7,"06:38:56",1
"23/11/30","06:50",0.0,7.1,83.2,1012.8,311.8,2.8,3.7,317.0,0.00,4.5,9.7,"06:40:56",1
"23/11/30","07:00",0.0,6.9,84.1,1012.8,295.5,2.5,3.6,309.2,0.00,4.4,9.6,"06:56:16",1
"23/11/30","07:10",0.0,6.7,85.0,1013.3,304.0,2.7,3.4,294.2,0.00,4.4,9.7,"07:05:20",1
"23/11/30","07:20",0.0,6.5,86.1,1013.0,310.3,3.0,3.5,318.8,0.00,4.4,9.8,"07:15:28",1
"23/11/30","07:30",0.0,6.7,86.6,1013.3,294.9,2.7,3.9,310.8,0.00,4.7,9.7,"07:23:20",1
"23/11/30","07:40",0.0,6.5,87.0,1013.5,294.7,2.3,3.3,279.9,0.00,4.5,9.6,"07:30:40",1
"23/11/30","07:50",0.0,6.5,87.5,1013.5,298.8,2.6,3.3,319.8,0.00,4.6,9.6,"07:41:28",1
"23/11/30","08:00",0.0,6.5,87.9,1013.5,284.0,2.5,3.4,259.1,0.00,4.7,9.6,"07:53:04",1
"23/11/30","08:10",0.0,6.9,88.2,1013.3,260.3,2.8,4.1,252.4,0.02,5.1,9.6,"08:02:58",1
"23/11/30","08:20",0.0,7.8,88.3,1013.5,272.7,1.7,3.3,271.2,0.11,6.0,9.5,"08:19:54",1
"23/11/30","08:30",0.0,8.7,86.8,1014.0,310.2,2.2,3.5,300.4,0.15,6.7,9.5,"08:22:52",1
"23/11/30","08:40",0.0,9.4,84.4,1014.0,313.5,2.0,4.1,329.0,0.17,6.9,9.7,"08:35:28",1
"23/11/30","08:50",0.0,10.0,81.4,1014.2,292.6,1.7,3.4,328.3,0.20,7.0,9.6,"08:40:02",1
"23/11/30","09:00",0.0,10.3,78.2,1014.5,275.1,2.0,4.1,239.1,0.22,6.7,9.4,"08:56:58",1
"23/11/30","09:10",0.0,10.7,75.6,1014.7,268.8,2.1,4.7,245.0,0.25,6.6,9.7,"09:03:56",1
"23/11/30","09:20",0.0,10.9,73.1,1014.5,275.8,1.8,3.7,297.6,0.27,6.3,9.7,"09:11:50",1
"23/11/30","09:30",0.0,11.2,71.2,1014.2,276.5,2.0,3.5,262.9,0.30,6.2,9.7,"09:27:40",1
"23/11/30","09:40",0.0,11.6,70.4,1014.7,258.2,2.1,4.1,242.0,0.32,6.4,9.7,"09:31:58",1
"23/11/30","09:50",0.0,12.0,69.2,1014.5,280.5,1.7,4.5,237.4,0.34,6.6,9.8,"09:43:00",1
"23/11/30","10:00",0.0,12.4,67.2,1014.5,276.5,1.6,4.1,244.6,0.40,6.5,9.8,"09:50:02",1
"23/11/30","10:10",0.0,12.7,64.6,1014.7,282.6,1.7,3.9,327.2,0.38,6.2,9.8,"10:05:20",1
"23/11/30","10:20",0.0,12.6,63.6,1014.2,273.5,1.8,3.9,261.9,0.40,5.9,9.9,"10:12:24",1
"23/11/30","10:30",0.0,12.8,62.2,1014.5,270.8,2.0,4.1,261.5,0.41,5.8,9.9,"10:20:32",1
"23/11/30","10:40",0.0,13.0,60.1,1014.0,266.3,2.0,5.1,238.9,0.44,5.5,10.1,"10:37:28",1
"23/11/30","10:50",0.0,13.3,58.7,1014.0,282.1,1.8,4.5,302.5,0.48,5.4,10.2,"10:42:56",1
"23/11/30","11:00",0.0,13.2,56.8,1013.8,262.1,2.3,5.2,241.7,0.40,4.9,10.1,"10:56:16",1
"23/11/30","11:10",0.0,13.5,55.3,1013.5,283.5,1.7,3.7,246.5,0.44,4.8,10.4,"11:00:48",1
"23/11/30","11:20",0.0,13.5,55.1,1013.5,250.5,2.1,4.2,228.6,0.47,4.7,10.3,"11:15:28",1
"23/11/30","11:30",0.0,13.1,56.4,1013.5,271.6,2.0,5.2,229.6,0.27,4.7,10.2,"11:26:48",1
"23/11/30","11:40",0.0,12.5,57.0,1013.3,262.0,2.2,4.2,240.5,0.17,4.3,10.5,"11:33:32",1
"23/11/30","11:50",0.0,12.1,56.7,1013.0,324.5,1.8,3.7,347.3,0.14,3.8,10.6,"11:46:50",1
"23/11/30","12:00",0.0,12.1,57.2,1013.0,317.3,1.8,3.3,343.3,0.14,3.9,10.7,"11:53:32",1
"23/11/30","12:10",0.0,12.3,55.7,1012.8,305.0,2.2,4.2,251.5,0.25,3.7,10.7,"12:02:10",1
"23/11/30","12:20",0.0,12.0,56.0,1012.8,321.7,2.6,6.2,338.9,0.14,3.5,10.8,"12:17:34",1
"23/11/30","12:30",0.0,11.7,55.9,1012.6,305.0,2.0,3.9,330.6,0.08,3.2,10.7,"12:20:08",1
"23/11/30","12:40",0.0,11.8,58.2,1012.8,288.0,1.8,3.5,252.3,0.15,3.9,10.7,"12:32:14",1
"23/11/30","12:50",0.0,13.0,54.7,1012.1,275.0,1.8,5.1,246.1,0.40,4.1,10.8,"12:40:30",1
"23/11/30","13:00",0.0,12.1,56.2,1012.6,305.3,2.6,5.1,345.5,0.09,3.7,10.8,"12:59:46",1
"23/11/30","13:10",0.0,11.3,58.5,1012.3,321.7,3.2,7.2,344.0,0.09,3.5,10.9,"13:00:20",1
"23/11/30","13:20",0.0,12.1,57.6,1012.6,305.8,2.5,6.2,340.7,0.37,4.0,10.8,"13:13:00",1
"23/11/30","13:30",0.0,11.9,55.9,1012.1,279.9,2.5,5.0,239.5,0.29,3.4,10.9,"13:21:44",1
"23/11/30","13:40",0.0,12.5,55.3,1012.1,293.1,2.2,5.2,240.0,0.37,3.8,11.1,"13:35:16",1
"23/11/30","13:50",0.0,12.6,53.1,1012.1,277.7,2.6,7.2,243.3,0.35,3.3,11.0,"13:43:08",1
"23/11/30","14:00",0.0,12.6,52.7,1012.1,287.6,2.5,5.0,333.1,0.30,3.2,11.2,"13:58:32",1
"23/11/30","14:10",0.0,12.7,51.4,1011.9,311.0,2.8,6.2,355.1,0.33,3.0,11.3,"14:08:34",1
"23/11/30","14:20",0.0,11.8,53.1,1012.3,328.4,3.1,5.6,299.5,0.12,2.6,11.1,"14:19:26",1
"23/11/30","14:30",0.0,10.7,58.5,1012.1,325.2,4.4,7.7,326.2,0.06,2.9,11.2,"14:28:46",1
"23/11/30","14:40",0.0,10.3,61.6,1012.1,310.8,3.4,6.0,344.4,0.06,3.3,11.2,"14:34:10",1
"23/11/30","14:50",0.0,10.1,63.1,1012.3,318.2,3.1,6.6,314.8,0.07,3.4,11.2,"14:47:52",1
"23/11/30","15:00",0.0,10.4,63.1,1012.1,301.3,3.0,8.6,352.9,0.12,3.7,11.2,"14:50:16",1
"23/11/30","15:10",0.0,10.6,60.9,1012.8,274.7,2.7,6.0,298.7,0.12,3.4,11.2,"15:04:32",1
"23/11/30","15:20",0.0,10.1,63.8,1012.6,293.5,2.2,4.4,340.3,0.07,3.6,11.2,"15:19:00",1
"23/11/30","15:30",0.0,10.1,64.8,1012.8,308.6,2.3,5.7,331.7,0.07,3.8,11.2,"15:23:44",1
"23/11/30","15:40",0.0,9.9,66.0,1012.8,300.9,2.7,5.1,346.3,0.08,3.9,11.3,"15:37:36",1
"23/11/30","15:50",0.0,9.5,67.8,1013.0,308.5,2.7,6.4,338.6,0.05,3.9,11.2,"15:40:08",1
"23/11/30","16:00",0.0,9.4,68.6,1013.3,330.6,2.2,6.4,343.0,0.05,4.0,11.2,"15:52:56",1
"23/11/30","16:10",0.0,9.2,69.6,1013.3,332.5,2.8,4.8,344.7,0.03,4.0,11.2,"16:02:56",1
"23/11/30","16:20",0.0,9.1,70.5,1013.0,321.0,2.2,4.8,348.8,0.02,4.1,11.1,"16:18:08",1
"23/11/30","16:30",0.0,8.7,71.2,1013.5,331.6,2.2,3.9,316.1,0.01,3.8,11.3,"16:27:28",1
"23/11/30","16:40",0.0,8.6,71.8,1013.8,308.2,2.1,4.1,307.6,0.00,3.8,11.2,"16:39:12",1
"23/11/30","16:50",0.0,8.4,72.4,1013.5,282.6,2.2,4.4,1.1,0.00,3.8,11.3,"16:47:52",1
"23/11/30","17:00",0.0,8.1,73.0,1013.5,285.7,2.7,5.5,339.2,0.00,3.6,11.2,"16:59:36",1
"23/11/30","17:10",0.0,7.8,73.7,1013.8,299.0,3.4,6.3,314.7,0.00,3.4,11.1,"17:03:04",1
"23/11/30","17:20",0.0,7.7,74.3,1013.8,297.4,3.4,7.3,333.0,0.00,3.5,11.0,"17:15:22",1
"23/11/30","17:30",0.0,7.5,75.0,1013.8,307.1,4.0,7.3,329.3,0.00,3.4,11.0,"17:24:00",1
"23/11/30","17:40",0.0,7.3,75.8,1013.8,307.0,3.4,6.2,336.9,0.00,3.4,10.9,"17:30:32",1
"23/11/30","17:50",0.0,7.1,76.7,1013.8,292.4,2.7,5.0,302.7,0.00,3.3,10.9,"17:46:32",1
"23/11/30","18:00",0.0,7.0,77.5,1014.0,289.6,3.0,4.9,322.8,0.00,3.4,11.0,"17:56:58",1
"23/11/30","18:10",0.0,6.9,78.2,1013.5,297.6,3.4,5.9,315.7,0.00,3.4,11.0,"18:01:36",1
"23/11/30","18:20",0.0,6.8,78.6,1013.8,310.4,4.2,7.5,327.7,0.00,3.4,11.0,"18:15:44",1
"23/11/30","18:30",0.0,6.6,79.1,1014.0,315.0,3.6,6.7,313.2,0.00,3.3,10.7,"18:23:04",1
"23/11/30","18:40",0.0,6.6,79.4,1013.5,302.2,3.5,5.1,303.7,0.00,3.3,10.7,"18:35:04",1
"23/11/30","18:50",0.0,6.4,79.6,1013.5,307.1,2.7,4.3,327.8,0.00,3.2,10.7,"18:42:08",1
"23/11/30","19:00",0.0,6.3,79.9,1013.3,302.1,2.7,6.0,336.7,0.00,3.1,10.8,"18:58:42",1
"23/11/30","19:10",0.0,6.6,79.5,1013.3,323.4,3.4,5.2,322.3,0.00,3.4,10.7,"19:01:44",1
"23/11/30","19:20",0.0,6.5,78.9,1013.5,318.5,2.3,5.0,325.1,0.00,3.1,10.7,"19:11:12",1
"23/11/30","19:30",0.0,6.2,78.8,1013.8,305.8,2.0,3.2,313.9,0.00,2.8,10.6,"19:20:24",1
"23/11/30","19:40",0.0,6.1,79.0,1013.5,319.1,2.1,4.4,329.3,0.00,2.8,10.7,"19:32:32",1
"23/11/30","19:50",0.0,6.3,78.8,1013.5,312.0,2.7,4.9,342.6,0.00,2.9,10.6,"19:48:26",1
"23/11/30","20:00",0.0,6.4,78.4,1013.8,314.3,2.6,5.1,324.3,0.00,3.0,10.5,"19:52:32",1
"23/11/30","20:10",0.0,6.3,78.5,1013.8,311.0,3.1,5.1,333.6,0.00,2.9,10.4,"20:06:26",1
"23/11/30","20:20",0.0,6.2,78.8,1013.3,297.8,2.3,4.2,302.5,0.00,2.8,10.6,"20:12:48",1
"23/11/30","20:30",0.0,6.3,79.1,1013.5,313.3,3.2,5.2,326.3,0.00,3.0,10.3,"20:21:20",1
"23/11/30","20:40",0.0,6.4,79.1,1013.5,310.2,3.5,5.0,317.4,0.00,3.1,10.3,"20:39:28",1
"23/11/30","20:50",0.0,6.3,79.3,1013.8,323.4,3.2,5.5,323.7,0.00,3.0,10.3,"20:49:52",1
"23/11/30","21:00",0.0,6.3,79.5,1013.3,322.9,3.4,5.6,331.0,0.00,3.1,10.4,"20:58:56",1
"23/11/30","21:10",0.0,6.2,79.7,1013.5,319.4,3.0,4.3,333.6,0.00,3.0,10.4,"21:02:40",1
"23/11/30","21:20",0.0,6.1,80.0,1013.5,322.0,2.7,4.0,341.4,0.00,3.0,10.5,"21:12:00",1
"23/11/30","21:30",0.0,6.1,80.3,1013.5,309.3,2.3,3.7,328.9,0.00,3.0,10.2,"21:29:14",1
"23/11/30","21:40",0.0,6.2,80.4,1013.3,299.3,2.7,5.5,337.1,0.00,3.1,10.2,"21:34:20",1
"23/11/30","21:50",0.0,6.1,80.3,1013.5,305.3,2.8,5.8,336.2,0.00,3.0,10.2,"21:44:16",1
"23/11/30","22:00",0.0,5.8,80.7,1013.5,302.5,2.2,3.1,325.4,0.00,2.8,10.3,"21:57:24",1
"23/11/30","22:10",0.0,5.7,81.4,1013.5,306.5,2.5,4.1,340.4,0.00,2.8,10.3,"22:04:32",1
"23/11/30","22:20",0.0,5.9,82.0,1013.5,307.3,2.8,5.1,332.7,0.00,3.1,10.2,"22:15:26",1
"23/11/30","22:30",0.0,5.9,82.2,1013.5,312.6,3.0,4.4,316.1,0.00,3.1,10.1,"22:24:20",1
"23/11/30","22:40",0.0,5.8,82.5,1013.5,291.5,2.2,3.4,287.4,0.00,3.1,10.3,"22:37:56",1
"23/11/30","22:50",0.0,5.7,82.7,1013.5,297.9,2.1,3.2,290.2,0.00,3.0,10.0,"22:47:48",1
"23/11/30","23:00",0.0,5.7,83.0,1013.5,321.5,2.5,3.6,318.5,0.00,3.1,10.2,"22:56:06",1
"23/11/30","23:10",0.0,5.6,83.5,1013.8,315.3,2.3,3.4,314.1,0.00,3.1,10.2,"23:07:48",1
"23/11/30","23:20",0.0,5.6,83.9,1013.8,303.6,2.6,3.9,325.5,0.00,3.1,9.8,"23:11:04",1
"23/11/30","23:30",0.0,5.7,84.1,1013.3,314.5,3.1,4.7,327.4,0.00,3.3,10.0,"23:29:20",1
"23/11/30","23:40",0.0,5.6,84.1,1014.0,320.4,2.8,4.1,318.8,0.00,3.2,9.9,"23:32:56",1
"23/11/30","23:50",0.0,5.4,84.6,1013.5,323.9,3.0,4.3,329.4,0.00,3.1,9.9,"23:43:44",1
"23/11/30","24:00",0.0,5.3,85.0,1013.8,320.4,3.0,4.0,331.2,0.00,3.0,9.9,"23:55:16",1
